Home > Weather > Belo Horizonte > Past weeks

Flag for Brazil Weather for the Past 2 Weeks in Belo Horizonte, Minas Gerais, Brazil

Now
81 °F

Passing clouds.


Feels Like: 81 °F
Forecast: 68 / 89 °F
Wind: 12 mph from Northeast

Location: Belo Horizonte Airport

Current Time: Feb 8, 2016 at 1:10:30 PM

Latest Report: Feb 8, 2016 at 12:00 PM


Visibility: N/A

Pressure: 30.18 "Hg (27.37 "Hg at 860m altitude)

Humidity: 51%

Dew point: 61 °F

Location of Belo HorizonteLocation

Historic Weather in Belo Horizonte — Graph

°F

Belo Horizonte Temperature Yesterday

Maximum temperature yesterday: 86 °F (at 3:00 PM)
Minimum temperature yesterday: 70 °F (at 6:00 AM)
Average temperature yesterday: 78 °F

High & Low Weather Summary for the Past Weeks

 TemperatureHumidityPressure
High88 °F (Feb 2, 3:00 PM)100% (Jan 26, 4:00 AM)30.21 "Hg (Jan 26, 4:00 AM)
Low45 °F (Jan 28, 3:00 PM)33% (Feb 2, 3:00 PM)29.89 "Hg (Jan 26, 6:00 PM)
Average76 °F68%30.08 "Hg
* Reported Jan 24 12:00 Noon — Feb 8 12:00 Noon, Belo Horizonte, Weather by CustomWeather, © 2016

Note: Actual official high and low records may vary slightly from our data, if they occured in-between our weather recording intervals... More about our weather records

Advertising

Belo Horizonte Weather History for the Previous 24 Hours

 ConditionsComfort  
Time TempWeatherWind HumidityBarometerVisibility
12:00 PM
Mon, Feb 8
81 °FPassing clouds.12 mph51%30.18 "HgN/A
11:00 AM77 °FScattered clouds.9 mph57%30.18 "HgN/A
10:00 AM75 °FSunny.7 mph65%30.18 "Hg10 mi
9:00 AM72 °FSunny.2 mph73%30.15 "Hg10 mi
8:00 AM70 °FSunny.2 mph73%30.15 "Hg10 mi
7:00 AM68 °FClear.3 mph78%30.09 "Hg10 mi
6:00 AM68 °FClear.5 mph78%30.09 "Hg10 mi
5:00 AM70 °FClear.2 mph73%30.09 "Hg10 mi
4:00 AM70 °FClear.1 mph78%30.09 "Hg10 mi
3:00 AM70 °FClear.No wind78%30.09 "Hg10 mi
2:00 AM72 °FClear.5 mph73%30.12 "Hg10 mi
1:00 AM72 °FClear.3 mph73%30.12 "Hg10 mi
12:00 AM75 °FClear.6 mph65%30.09 "Hg10 mi
11:00 PM
Sun, Feb 7
77 °FClear.6 mph61%30.09 "Hg10 mi
10:00 PM77 °FClear.7 mph57%30.09 "Hg10 mi
9:00 PM79 °FPassing clouds.8 mph54%30.07 "HgN/A
8:00 PM81 °FScattered clouds.10 mph51%30.07 "HgN/A
7:00 PM84 °FScattered clouds.8 mph40%30.04 "HgN/A
6:00 PM86 °FScattered clouds.9 mph35%30.04 "HgN/A
5:00 PM86 °FScattered clouds.5 mph38%30.04 "HgN/A
4:00 PM86 °FBroken clouds.7 mph38%30.04 "HgN/A
3:00 PM86 °FPartly sunny.8 mph38%30.09 "HgN/A
2:00 PM84 °FPartly sunny.7 mph45%30.12 "HgN/A
1:00 PM81 °FScattered clouds.6 mph54%30.15 "HgN/A
Weather by CustomWeather, © 2016

See weather overviewHow to use our weather pages